Location: Ravencliff
(37.6982°N, 81.4812°W)
Time: 20:26:09
(UTC+00:00)

Hubble Space Telescope - Visible Passes

Search period start: 10 April 2026 00:00
Search period end: 20 April 2026 00:00
Orbit: 474 x 477 km, 28.5° (Epoch: 10 April)

Date Brightness Start Highest point End Pass type
(mag) Time Alt. Az. Time Alt. Az. Time Alt. Az.
10 Apr 2.3 09:38:52 17° SSW 09:39:41 19° S 09:42:21 10° SE visible
11 Apr 2.6 09:09:25 17° SSE 09:09:25 17° SSE 09:11:13 10° SE visible
12 Apr 3.3 08:39:58 10° SE 08:39:58 10° SE 08:40:05 10° SE visible
12 Apr 2.3 10:14:01 10° SW 10:16:37 18° S 10:19:14 10° SE visible
13 Apr 2.2 09:44:36 17° SSW 09:45:28 18° S 09:48:05 10° SE visible
14 Apr 2.5 09:15:15 17° SSE 09:15:15 17° SSE 09:16:55 10° SE visible
